sat.trackr.live / text

‹ back to catalog

STARLINK-2346

NORAD 47887 · 2021-021AD

PAYLOAD ACTIVE UNKNOWN

§ Identity

Operator
Country
US
Launch date
2021-03-14
Launch site
AFETR
Launch vehicle
Mass (kg)
RCS (m²)

Purposes: comms

External: N2YO · Heavens-Above · Gunter

§ Orbital elements

Epoch: 2026-09-20T02:46:00.820992Z

Period
93.99 min
Inclination
53.1592°
Eccentricity
0.0001941
Mean motion
15.32036497 rev/d
Perigee alt
468.4 km
Apogee alt
471.1 km
Semi-major
6,847.9 km
B*
1.4736e-3
RAAN
96.1521°
Arg perigee
101.9720°
Mean anomaly
258.1499°
Rev number
30,585

§ Raw data

STARLINK-23461 47887U 21021AD  26263.11528728  .00046132  00000+0  14736-2 0  99912 47887  53.1592  96.1521 0001941 101.9720 258.1499 15.32036497305859

JSON: /api/v1/satellites/47887 · /tle

For live sub-satellite position, see the globe view (requires WebGL).

§ Visibility from observer

Set your observer location to see the next 7 days of passes ≥ 10°. The values pass through the URL so the page stays shareable.

No JS? Fill the form by hand. The geolocation button needs JavaScript.